Regional Weather Roundup
Issued by NWS Goodland, KS

Home | Current Version | Previous Version | Text Only | Print | Product List | Glossary On
Versions: 1 2 3 4 5 6 7 8 9 10 11 12 13 14 15 16 17 18 19 20 21 22 23 24 25 26 27 28 29 30 31 32 33 34 35 36 37 38 39 40 41 42 43 44 45 46 47 48 49 50
000
ASUS43 KGLD 290108
RWRGLD

GOODLAND FORECAST AREA HOURLY WEATHER ROUNDUP
NATIONAL WEATHER SERVICE GOODLAND KS
700 PM MDT SAT MAR 28 2015

...OFFICIAL OBSERVATIONS...

CITY           SKY/WX    TMP DP  RH WIND       PRES   REMARKS
GOODLAND KS    CLEAR     71  23  16 S9        29.87S
HILL CITY KS   CLEAR     68  38  33 SE13      29.88F
IMPERIAL NEB     N/A     74  25  16 SW10      29.78F
MCCOOK NEB     CLEAR     72  35  25 SE16G25   29.80F
AKRON CO       CLEAR     68  23  18 W10       29.87S
BURLINGTON CO  CLEAR     68  26  20 S10       29.90S
LIMON CO       CLEAR     64  24  21 S6        29.94F
$$

...UNOFFICIAL OBSERVATIONS...

CITY           SKY/WX    TMP DP  RH WIND       PRES   REMARKS
COLBY KS       CLEAR     73  37  27 S14       29.86F
GOVE KS          N/A     70  32  24 MISG        N/A
LENORA KS        N/A     67  32  27 MISG        N/A
NORTON KS      CLEAR     68  34  28 SE15      29.85F
SHARON SPRINGS   N/A     71  31  22 S10         N/A
TRIBUNE KS     CLEAR     72  37  28 S9        29.92F
KIT CARSON CO    N/A     72  29  20 MISG        N/A
YUMA CO          N/A     72  28  19 W5          N/A
$$


USA.gov is the U.S. government's official web portal to all federal, state and local government web resources and services.